• în Republica Moldova
  • Lista ţărilor
  • Pe 7 zile
  • Temperatura apei
  • Hartă satelitară
  • Meteo pe hartă
  • Widget-uri
  • user-avatar
    Intrare

    Meteo pe oră la Gjirokaster

    Astăzi, 13 Decembrie, Miercuri

    Timp Temperatura Precipitaţii Vânt Presiune Umiditate
    00:00 +3°C° 0 mm 4 m/s 654 mmHg 93%
    01:00 +3°C° 0 mm 4 m/s 654 mmHg 94%
    02:00 +3°C° 0 mm 4 m/s 654 mmHg 94%
    03:00 +3°C° 0 mm 4 m/s 654 mmHg 94%
    04:00 +3°C° 0 mm 4 m/s 654 mmHg 95%
    05:00 +3°C° 0 mm 4 m/s 654 mmHg 95%
    06:00 +1°C° 0 mm 4 m/s 654 mmHg 95%
    07:00 +3°C° 0 mm 4 m/s 654 mmHg 95%
    08:00 +3°C° 0 mm 4 m/s 654 mmHg 92%
    09:00 +4°C° 0 mm 4 m/s 654 mmHg 89%
    10:00 +5°C° 0 mm 5 m/s 655 mmHg 86%
    11:00 +6°C° 0 mm 5 m/s 654 mmHg 83%
    12:00 +6°C° 0 mm 5 m/s 654 mmHg 81%
    13:00 +7°C° 0 mm 5 m/s 654 mmHg 79%
    14:00 +6°C° 0,1 mm 5 m/s 653 mmHg 82%
    15:00 +5°C° 0,1 mm 5 m/s 653 mmHg 86%
    16:00 +5°C° 0,1 mm 5 m/s 653 mmHg 90%
    17:00 +3°C° 0,1 mm 5 m/s 652 mmHg 91%
    18:00 +3°C° 0,1 mm 5 m/s 652 mmHg 92%
    19:00 +3°C° 0,1 mm 5 m/s 652 mmHg 94%
    20:00 +4°C° 0,8 mm 4 m/s 652 mmHg 94%
    21:00 +4°C° 0,8 mm 4 m/s 652 mmHg 95%
    22:00 +4°C° 0,8 mm 3 m/s 652 mmHg 95%
    23:00 +4°C° 0,9 mm 3 m/s 652 mmHg 95%

    Mâine, 14 Decembrie, Joi

    Timp Temperatura Precipitaţii Vânt Presiune Umiditate
    00:00 +5°C° 0,9 mm 2 m/s 651 mmHg 95%
    01:00 +4°C° 0,9 mm 2 m/s 651 mmHg 95%
    02:00 +4°C° 0,3 mm 2 m/s 651 mmHg 95%
    03:00 +4°C° 0,3 mm 2 m/s 651 mmHg 94%
    04:00 +4°C° 0,3 mm 2 m/s 651 mmHg 94%
    05:00 +3°C° 0,1 mm 2 m/s 651 mmHg 93%
    06:00 +3°C° 0,1 mm 2 m/s 651 mmHg 93%
    07:00 +3°C° 0,1 mm 2 m/s 651 mmHg 93%
    08:00 +3°C° 0 mm 2 m/s 651 mmHg 89%
    09:00 +4°C° 0 mm 2 m/s 651 mmHg 84%
    10:00 +5°C° 0 mm 2 m/s 652 mmHg 80%
    11:00 +5°C° 0 mm 2 m/s 652 mmHg 75%
    12:00 +5°C° 0 mm 2 m/s 652 mmHg 70%
    13:00 +6°C° 0 mm 2 m/s 652 mmHg 65%
    14:00 +5°C° 0 mm 2 m/s 651 mmHg 69%
    15:00 +4°C° 0 mm 2 m/s 651 mmHg 72%
    16:00 +5°C° 0 mm 1 m/s 651 mmHg 75%
    17:00 +4°C° 0 mm 1 m/s 651 mmHg 78%
    18:00 +4°C° 0 mm 1 m/s 651 mmHg 80%
    19:00 +3°C° 0 mm 1 m/s 651 mmHg 82%
    20:00 +2°C° 0 mm 2 m/s 651 mmHg 84%
    21:00 +2°C° 0 mm 2 m/s 651 mmHg 85%
    22:00 0°C° 0 mm 3 m/s 651 mmHg 86%
    23:00 0°C° 0 mm 3 m/s 651 mmHg 86%

    Poimâine, 15 Decembrie, Vineri

    Timp Temperatura Precipitaţii Vânt Presiune Umiditate
    00:00 0°C° 0 mm 3 m/s 651 mmHg 85%
    01:00 0°C° 0 mm 3 m/s 651 mmHg 84%
    02:00 -1°C° 0 mm 4 m/s 651 mmHg 83%
    03:00 -1°C° 0 mm 4 m/s 650 mmHg 83%
    04:00 -1°C° 0 mm 4 m/s 650 mmHg 82%
    05:00 -1°C° 0 mm 4 m/s 650 mmHg 83%
    06:00 -1°C° 0 mm 4 m/s 650 mmHg 84%
    07:00 -1°C° 0 mm 4 m/s 650 mmHg 85%
    08:00 +1°C° 0 mm 4 m/s 650 mmHg 85%
    09:00 +2°C° 0 mm 5 m/s 651 mmHg 84%
    10:00 +3°C° 0 mm 5 m/s 651 mmHg 83%
    11:00 +3°C° 0,1 mm 5 m/s 650 mmHg 84%
    12:00 +3°C° 0,1 mm 5 m/s 650 mmHg 85%
    13:00 +3°C° 0,1 mm 6 m/s 650 mmHg 86%
    14:00 +3°C° 0,2 mm 6 m/s 649 mmHg 88%
    15:00 +3°C° 0,2 mm 6 m/s 649 mmHg 90%
    16:00 +2°C° 0,2 mm 5 m/s 649 mmHg 92%
    17:00 +2°C° 0,2 mm 5 m/s 649 mmHg 93%
    18:00 +2°C° 0,2 mm 5 m/s 649 mmHg 93%
    19:00 +2°C° 0,2 mm 5 m/s 649 mmHg 94%
    20:00 +2°C° 0,2 mm 5 m/s 649 mmHg 94%
    21:00 +2°C° 0,2 mm 5 m/s 649 mmHg 94%
    22:00 +2°C° 0,2 mm 5 m/s 649 mmHg 95%
    23:00 +2°C° 0,2 mm 5 m/s 649 mmHg 95%

    16 Decembrie, Sâmbătă

    Timp Temperatura Precipitaţii Vânt Presiune Umiditate
    00:00 +3°C° 0,2 mm 5 m/s 649 mmHg 95%
    01:00 +3°C° 0,2 mm 5 m/s 648 mmHg 95%
    02:00 +3°C° 0,1 mm 5 m/s 648 mmHg 95%
    03:00 +3°C° 0,1 mm 5 m/s 648 mmHg 95%
    04:00 +3°C° 0,1 mm 5 m/s 648 mmHg 95%
    05:00 +3°C° 0,2 mm 5 m/s 647 mmHg 95%
    06:00 +3°C° 0,2 mm 5 m/s 647 mmHg 95%
    07:00 +3°C° 0,2 mm 5 m/s 647 mmHg 95%
    08:00 +5°C° 0,2 mm 5 m/s 647 mmHg 94%
    09:00 +5°C° 0,2 mm 5 m/s 648 mmHg 92%
    10:00 +5°C° 0,2 mm 6 m/s 648 mmHg 90%
    11:00 +5°C° 0,6 mm 6 m/s 647 mmHg 89%
    12:00 +4°C° 0,6 mm 6 m/s 647 mmHg 89%
    13:00 +4°C° 0,6 mm 6 m/s 646 mmHg 88%
    14:00 +4°C° 1 mm 6 m/s 646 mmHg 89%
    15:00 +4°C° 1 mm 6 m/s 645 mmHg 90%
    16:00 +3°C° 1 mm 6 m/s 644 mmHg 91%
    17:00 +3°C° 6,1 mm 7 m/s 644 mmHg 92%
    18:00 +3°C° 6,1 mm 7 m/s 644 mmHg 93%
    19:00 +2°C° 6,1 mm 8 m/s 643 mmHg 95%
    20:00 +3°C° 9 mm 7 m/s 643 mmHg 95%
    21:00 +3°C° 9 mm 7 m/s 643 mmHg 95%
    22:00 +3°C° 9 mm 6 m/s 642 mmHg 95%
    23:00 +2°C° 3,5 mm 5 m/s 642 mmHg 95%

    17 Decembrie, Duminică

    Timp Temperatura Precipitaţii Vânt Presiune Umiditate
    00:00 +2°C° 3,5 mm 5 m/s 642 mmHg 95%
    01:00 +3°C° 3,5 mm 4 m/s 642 mmHg 96%
    02:00 +3°C° 0,6 mm 4 m/s 643 mmHg 95%
    03:00 +3°C° 0,6 mm 4 m/s 643 mmHg 95%
    04:00 +3°C° 0,6 mm 4 m/s 644 mmHg 94%
    05:00 +1°C° 0,1 mm 4 m/s 644 mmHg 92%
    06:00 +1°C° 0,1 mm 4 m/s 645 mmHg 90%
    07:00 +1°C° 0,1 mm 3 m/s 645 mmHg 88%
    08:00 +2°C° 0 mm 3 m/s 646 mmHg 84%
    09:00 +2°C° 0 mm 3 m/s 647 mmHg 79%
    10:00 +2°C° 0 mm 3 m/s 647 mmHg 74%
    11:00 +2°C° 0,1 mm 3 m/s 647 mmHg 73%
    12:00 +3°C° 0,1 mm 3 m/s 648 mmHg 71%
    13:00 +3°C° 0,1 mm 3 m/s 648 mmHg 70%
    14:00 +2°C° 0,2 mm 3 m/s 648 mmHg 73%
    15:00 +1°C° 0,2 mm 3 m/s 648 mmHg 77%
    16:00 +2°C° 0,2 mm 2 m/s 648 mmHg 81%
    17:00 +1°C° 0,1 mm 2 m/s 648 mmHg 83%
    18:00 +1°C° 0,1 mm 2 m/s 649 mmHg 85%
    19:00 -1°C° 0,1 mm 2 m/s 649 mmHg 87%
    20:00 -1°C° 0,1 mm 2 m/s 650 mmHg 88%
    21:00 -1°C° 0,1 mm 2 m/s 650 mmHg 88%
    22:00 -1°C° 0,1 mm 2 m/s 650 mmHg 88%
    23:00 -2°C° 0 mm 2 m/s 651 mmHg 88%

    18 Decembrie, Luni

    Timp Temperatura Precipitaţii Vânt Presiune Umiditate
    00:00 -2°C° 0 mm 2 m/s 651 mmHg 88%
    01:00 -2°C° 0 mm 3 m/s 651 mmHg 88%
    02:00 -2°C° 0 mm 2 m/s 651 mmHg 88%
    03:00 -3°C° 0 mm 2 m/s 651 mmHg 88%
    04:00 -3°C° 0 mm 2 m/s 651 mmHg 88%
    05:00 -3°C° 0 mm 2 m/s 651 mmHg 88%
    06:00 -3°C° 0 mm 2 m/s 651 mmHg 88%
    07:00 -3°C° 0 mm 2 m/s 652 mmHg 88%
    08:00 -2°C° 0 mm 2 m/s 652 mmHg 82%
    09:00 -1°C° 0 mm 3 m/s 653 mmHg 76%
    10:00 0°C° 0 mm 3 m/s 653 mmHg 70%
    11:00 0°C° 0,1 mm 3 m/s 653 mmHg 69%
    12:00 -1°C° 0,1 mm 4 m/s 653 mmHg 67%
    13:00 -1°C° 0,1 mm 4 m/s 652 mmHg 65%
    14:00 -2°C° 0,1 mm 4 m/s 652 mmHg 69%
    15:00 -3°C° 0,1 mm 4 m/s 652 mmHg 72%
    16:00 -4°C° 0,1 mm 4 m/s 652 mmHg 76%
    17:00 -4°C° 0 mm 4 m/s 652 mmHg 77%
    18:00 -5°C° 0 mm 4 m/s 652 mmHg 79%
    19:00 -6°C° 0 mm 3 m/s 652 mmHg 80%
    20:00 -6°C° 0 mm 3 m/s 653 mmHg 80%
    21:00 -6°C° 0 mm 3 m/s 653 mmHg 80%
    22:00 -7°C° 0 mm 3 m/s 653 mmHg 80%
    23:00 -7°C° 0 mm 3 m/s 653 mmHg 80%
    Arată mai mult